ORBCOMM FM16 [-]

Last updated on July 6, 2021, 3:36 p.m. UTC

1 25417U 98046E   21186.93683409  .00000020  00000-0  57742-4 0  9997
2 25417  44.9950 141.2501 0005815 291.8086  68.2141 14.33387427197077
UTC
Height (km)
Latitude
Longitude
Inclination
Orbital Period
UTC large
Height (km)
Speed (km/s)
/
Latitude / Longitude
Inclination (degrees)
Orbital Period (minutes)
Azimuth
Elevation
Range (km)
Doppler Factor
iOS Compass Heading
iOS Angle